#timestamp,LO_Frequency,Hit,StdDev 
1687885215.8,286046998.9,N
1687885235.6,286046999.9,N
1687885255.5,286047001.6,N
1687885275.3,286047000.4,N
1687885295.1,286046999.0,N
1687885315.9,286046999.3,N
1687885335.7,286046998.6,N
1687885355.6,286046998.6,N
1687885375.4,286046999.4,N
1687885395.2,286046998.1,N
1687885415.1,286046996.6,N
1687885416.0,286046996.6,N
1687885435.8,286046996.8,N
1687885455.7,286046999.2,N
1687885475.5,286046999.2,N
1687885495.3,286046998.2,N
1687885515.2,286047000.0,N
1687885535.0,286046999.4,N
1687885535.9,286046999.4,N
1687885555.8,286046999.6,N
1687885575.6,286046999.2,N
1687885595.4,286047002.8,N
1687885615.3,286046998.6,N
1687885635.1,286046999.1,N
1687885655.9,286046996.6,N
1687885675.7,286046999.4,N
1687885695.5,286047001.2,N
1687885715.4,286046996.9,N
1687885735.2,286046999.4,N
1687885755.1,286046999.3,N
1687885756.0,286046999.3,N
1687885775.8,286046998.1,N
1687885795.6,286046998.2,N
1687885815.5,286046998.4,N
1687885835.3,286046998.8,N
1687885855.2,286046998.9,N
1687885875.9,286046998.6,N
1687885895.7,286047000.6,N
1687885915.6,286047000.7,N
1687885935.4,286046999.7,N
1687885955.3,286047004.2,Y
1687885975.1,286047004.4,P
1687885976.0,286047004.4,N
1687885995.8,286047001.6,N
1687886015.7,286047004.4,N
1687886035.5,286047004.0,N
1687886055.4,286046999.8,N
1687886075.2,286047000.4,N
1687886095.0,286047002.1,N
1687886095.9,286047002.1,N
1687886115.8,286047004.4,N
1687886135.6,286047001.6,N
1687886155.5,286047002.8,N
1687886175.3,286047000.4,N
1687886195.1,286047000.7,N
1687886215.9,286047001.0,N
1687886235.7,286046998.5,N
1687886255.5,286047000.2,N
1687886275.4,286047001.4,N
1687886295.2,286047003.9,N
1687886315.1,286047002.0,N
1687886316.0,286047002.0,N
1687886335.8,286047002.2,N
1687886355.6,286047002.8,N
1687886375.5,286047000.4,N
1687886395.3,286046998.5,N
1687886415.1,286047000.7,N
1687886435.9,286047000.6,N
1687886455.7,286047002.6,N
1687886475.6,286047002.2,N
1687886495.4,286047003.8,N
1687886515.2,286047003.6,N
1687886535.1,286047003.4,N
1687886536.0,286047003.4,N
1687886555.8,286047003.1,N
1687886575.6,286047004.1,N
1687886595.5,286047003.7,N
1687886615.3,286047003.7,N
1687886635.2,286047003.4,N
1687886655.9,286047003.1,N
1687886675.7,286047004.0,N
1687886695.6,286047003.9,N
1687886715.4,286047001.3,N
1687886735.2,286047001.7,N
1687886755.1,286046999.7,N
1687886756.0,286046999.7,N
1687886775.8,286047000.7,N
1687886795.7,286047000.2,N
1687886815.5,286046998.5,N
1687886835.3,286047001.0,N
1687886855.2,286047000.9,N
1687886875.0,286046999.8,N
1687886875.9,286046999.8,N
1687886895.8,286047000.5,N
1687886915.6,286047001.2,N
1687886935.4,286047000.8,N
1687886955.3,286046998.4,N
1687886975.1,286046999.2,N
1687886995.8,286046999.3,N
1687887015.7,286046999.3,N
1687887035.5,286046999.4,N
1687887055.4,286046998.9,N
1687887075.2,286047000.7,N
1687887095.0,286046998.1,N
1687887095.9,286046998.1,N
1687887115.8,286047000.4,N
1687887135.6,286047001.0,N
1687887155.4,286046998.1,N
1687887175.3,286046998.7,N
1687887195.1,286047001.0,N
1687887215.9,286046999.8,N
1687887235.7,286047002.4,N
1687887255.6,286047002.7,N
1687887275.4,286047002.0,N
1687887295.2,286047002.6,N
1687887315.1,286046999.8,N
1687887316.0,286046999.8,N
1687887335.8,286047000.3,N
1687887355.6,286047002.7,N
1687887375.5,286047002.2,N
1687887395.3,286047002.3,N
1687887415.2,286047002.7,N
1687887435.9,286047002.1,N
1687887455.7,286047002.1,N
1687887475.6,286047002.1,N
1687887495.4,286047002.0,N
1687887515.2,286047002.2,N
1687887535.1,286047002.1,N
1687887536.0,286047002.1,N
1687887555.8,286047002.5,N
1687887575.7,286047001.4,N
1687887595.5,286047003.9,N
1687887615.3,286047002.0,N
1687887635.2,286047002.0,N
1687887655.0,286047002.0,N
1687887655.9,286047002.0,N
1687887675.8,286047001.5,N
1687887695.6,286047003.9,Y
1687887715.4,286047000.4,P
1687887735.3,286047001.0,N
1687887755.1,286047000.8,N
1687887775.8,286047000.5,N
1687887795.7,286047002.3,Y
1687887815.5,286047000.3,P
1687887835.4,286047000.2,N
1687887855.2,286047000.4,N
1687887875.0,286047001.0,Y
1687887875.9,286047001.0,P
1687887895.8,286046998.1,P
1687887915.6,286047000.6,N
1687887935.5,286047000.5,N
1687887955.3,286047000.6,N
1687887975.1,286047002.7,N
1687887995.9,286046999.8,N
1687888015.7,286046999.7,N
1687888035.5,286047002.1,N
1687888055.4,286046999.7,N
1687888075.2,286047001.9,N
1687888095.1,286047002.2,N
1687888096.0,286047002.2,N
1687888115.8,286047004.4,Y
1687888135.6,286047002.6,P
1687888155.5,286047000.1,N
1687888175.3,286046999.8,N
1687888195.1,286046999.7,N
1687888215.9,286047001.6,N
1687888235.7,286047002.1,N
1687888255.6,286047002.8,N
1687888275.4,286047001.5,N
1687888295.2,286047001.7,N
1687888315.1,286047001.6,N
1687888316.0,286047001.6,N
1687888335.8,286047001.8,N
1687888355.7,286047004.4,Y
1687888375.5,286047002.0,P
1687888395.3,286047000.1,N
1687888415.2,286047002.5,P
1687888435.9,286047002.4,N
1687888455.7,286046999.8,N
1687888475.6,286047000.1,N
1687888495.4,286047002.4,N
1687888515.3,286047001.5,N
1687888535.1,286047002.0,N
1687888536.0,286047002.0,N
1687888555.8,286047002.1,N
1687888575.7,286047001.9,N
1687888595.5,286047002.1,N
1687888615.3,286047001.6,N
1687888635.2,286047002.5,N
1687888655.0,286047002.2,N
1687888655.9,286047002.2,N
1687888675.8,286047002.2,N
1687888695.6,286047002.2,N
1687888715.4,286047002.2,N
1687888735.3,286047001.9,N
1687888755.1,286047002.0,N
1687888775.9,286047002.4,Y
1687888795.7,286046998.1,P
